"read_dt","SO2 (ppb)","flags","PMT voltage (V)","lamp voltage (V)","lamp intensity (Hz)","internal temp (C)","react chamber temp (C)","sample flow (l/min)","pres (mmHg)","SO2 bkg (ppb)","SO2 coefficient"
2013-12-01 00:00:00,4688E-4,5C000000,-0724,0969,10727,025.4,045.2,0.392,725.8,01.19,0.508
2013-12-01 00:01:00,4739E-4,5C000000,-0724,0968,10809,025.4,045.3,0.391,726.0,01.19,0.508
2013-12-01 00:02:00,5276E-4,5C000000,-0724,0968,10926,025.5,045.3,0.392,726.0,01.19,0.508
2013-12-01 00:03:00,4917E-4,5C000000,-0724,0968,10896,025.5,045.2,0.392,725.9,01.19,0.508
2013-12-01 00:04:00,4332E-4,5C000000,-0724,0967,10879,025.4,045.2,0.391,726.0,01.19,0.508
2013-12-01 00:05:00,4657E-4,5C000000,-0724,0967,10899,025.4,045.3,0.392,726.1,01.19,0.508
2013-12-01 00:06:00,4053E-4,5C000000,-0724,0968,10817,025.4,045.3,0.391,725.8,01.19,0.508
2013-12-01 00:07:00,3631E-4,5C000000,-0724,0969,10872,025.4,045.3,0.392,725.9,01.19,0.508
2013-12-01 00:08:00,4560E-4,5C000000,-0724,0968,10941,025.4,045.2,0.391,726.0,01.19,0.508
2013-12-01 00:09:00,4916E-4,5C000000,-0724,0969,10983,025.4,045.3,0.392,725.9,01.19,0.508
2013-12-01 00:10:00,4047E-4,5C000000,-0724,0967,10830,025.4,045.3,0.391,726.0,01.19,0.508
2013-12-01 00:11:00,4615E-4,5C000000,-0724,0968,10952,025.4,045.3,0.392,726.0,01.19,0.508
2013-12-01 00:12:00,4429E-4,5C000000,-0724,0968,10793,025.4,045.3,0.392,726.0,01.19,0.508
2013-12-01 00:13:00,3496E-4,5C000000,-0724,0968,10896,025.4,045.3,0.392,726.0,01.19,0.508
2013-12-01 00:14:00,5011E-4,5C000000,-0724,0967,10889,025.4,045.3,0.392,726.0,01.19,0.508
2013-12-01 00:15:00,4422E-4,5C000000,-0724,0967,10787,025.5,045.3,0.391,725.8,01.19,0.508
2013-12-01 00:16:00,4972E-4,5C000000,-0724,0968,10880,025.4,045.2,0.392,725.9,01.19,0.508
2013-12-01 00:17:00,4787E-4,5C000000,-0724,0967,10794,025.5,045.3,0.391,726.0,01.19,0.508
2013-12-01 00:18:00,3864E-4,5C000000,-0724,0967,10814,025.4,045.3,0.392,725.9,01.19,0.508
2013-12-01 00:19:00,5601E-4,5C000000,-0724,0968,10975,025.4,045.3,0.391,726.0,01.19,0.508
2013-12-01 00:20:00,5001E-4,5C000000,-0724,0967,10901,025.4,045.2,0.392,726.1,01.19,0.508
2013-12-01 00:21:00,4065E-4,5C000000,-0724,0968,10881,025.4,045.3,0.392,725.9,01.19,0.508
2013-12-01 00:22:00,3617E-4,5C000000,-0724,0968,10900,025.5,045.3,0.392,725.9,01.19,0.508
2013-12-01 00:23:00,3950E-4,5C000000,-0724,0968,10860,025.4,045.3,0.392,725.9,01.19,0.508
2013-12-01 00:24:00,4845E-4,5C000000,-0724,0968,10681,025.4,045.3,0.391,726.0,01.19,0.508
2013-12-01 00:25:00,3962E-4,5C000000,-0724,0968,10873,025.4,045.3,0.392,725.9,01.19,0.508
2013-12-01 00:26:00,5410E-4,5C000000,-0724,0967,10699,025.5,045.2,0.391,725.9,01.19,0.508
2013-12-01 00:27:00,4769E-4,5C000000,-0724,0968,10788,025.4,045.3,0.392,725.9,01.19,0.508
2013-12-01 00:28:00,4415E-4,5C000000,-0724,0967,10813,025.5,045.3,0.391,726.0,01.19,0.508
2013-12-01 00:29:00,6051E-4,5C000000,-0724,0967,10888,025.5,045.2,0.392,726.0,01.19,0.508
2013-12-01 00:30:00,4269E-4,5C000000,-0724,0967,10774,025.4,045.3,0.392,725.9,01.19,0.508
2013-12-01 00:31:00,6204E-4,5C000000,-0724,0968,10834,025.4,045.3,0.391,725.9,01.19,0.508
2013-12-01 00:32:00,5195E-4,5C000000,-0724,0967,10786,025.4,045.3,0.392,726.0,01.19,0.508
2013-12-01 00:33:00,3994E-4,5C000000,-0724,0967,10880,025.4,045.2,0.391,725.9,01.19,0.508
2013-12-01 00:34:00,4580E-4,5C000000,-0724,0967,10748,025.4,045.2,0.392,725.8,01.19,0.508
2013-12-01 00:35:00,6251E-4,5C000000,-0724,0967,10900,025.5,045.2,0.391,725.9,01.19,0.508
2013-12-01 00:36:00,5388E-4,5C000000,-0724,0968,10950,025.5,045.3,0.392,726.0,01.19,0.508
2013-12-01 00:37:00,4156E-4,5C000000,-0724,0968,10941,025.5,045.3,0.391,725.8,01.19,0.508
2013-12-01 00:38:00,4476E-4,5C000000,-0724,0968,10921,025.5,045.3,0.392,725.9,01.19,0.508
2013-12-01 00:39:00,4999E-4,5C000000,-0724,0969,10785,025.5,045.3,0.392,726.0,01.19,0.508
2013-12-01 00:40:00,4447E-4,5C000000,-0724,0968,10821,025.5,045.3,0.392,725.9,01.19,0.508
2013-12-01 00:41:00,4582E-4,5C000000,-0724,0967,10812,025.5,045.3,0.392,726.0,01.19,0.508
2013-12-01 00:42:00,5518E-4,5C000000,-0724,0968,10883,025.5,045.3,0.391,726.0,01.19,0.508
2013-12-01 00:43:00,5657E-4,5C000000,-0724,0967,10619,025.5,045.3,0.392,726.0,01.19,0.508
2013-12-01 00:44:00,5992E-4,5C000000,-0724,0968,10777,025.5,045.3,0.391,726.0,01.19,0.508
2013-12-01 00:45:00,4222E-4,5C000000,-0724,0967,10842,025.5,045.2,0.392,726.0,01.19,0.508
2013-12-01 00:46:00,4907E-4,5C000000,-0724,0967,10908,025.5,045.2,0.391,725.8,01.19,0.508
2013-12-01 00:47:00,5097E-4,5C000000,-0724,0968,10827,025.5,045.3,0.392,725.9,01.19,0.508
2013-12-01 00:48:00,4876E-4,5C000000,-0724,0968,10687,025.4,045.2,0.391,725.9,01.19,0.508
2013-12-01 00:49:00,6269E-4,5C000000,-0724,0967,10859,025.5,045.3,0.392,725.8,01.19,0.508
2013-12-01 00:50:00,5557E-4,5C000000,-0724,0967,10820,025.5,045.3,0.392,725.9,01.19,0.508
2013-12-01 00:51:00,5134E-4,5C000000,-0724,0967,10855,025.5,045.2,0.391,725.9,01.19,0.508
2013-12-01 00:52:00,4763E-4,5C000000,-0724,0967,10827,025.5,045.3,0.392,725.8,01.19,0.508
2013-12-01 00:53:00,5876E-4,5C000000,-0724,0968,10816,025.5,045.3,0.391,725.9,01.19,0.508
2013-12-01 00:54:00,5312E-4,5C000000,-0724,0968,10893,025.5,045.2,0.392,725.9,01.19,0.508
2013-12-01 00:55:00,4024E-4,5C000000,-0724,0968,10824,025.5,045.3,0.391,726.0,01.19,0.508
2013-12-01 00:56:00,5099E-4,5C000000,-0724,0969,10881,025.5,045.3,0.392,726.0,01.19,0.508
2013-12-01 00:57:00,6381E-4,5C000000,-0724,0967,10714,025.5,045.2,0.392,726.0,01.19,0.508
2013-12-01 00:58:00,6324E-4,5C000000,-0724,0967,10879,025.5,045.2,0.391,726.1,01.19,0.508
2013-12-01 00:59:00,5330E-4,5C000000,-0724,0967,10963,025.5,045.3,0.392,726.2,01.19,0.508
2013-12-01 01:00:00,5013E-4,5C000000,-0724,0967,10750,025.5,045.3,0.391,726.2,01.19,0.508
2013-12-01 01:01:00,6187E-4,5C000000,-0724,0968,10930,025.5,045.3,0.392,726.0,01.19,0.508
2013-12-01 01:02:00,5579E-4,5C000000,-0724,0968,10865,025.5,045.3,0.391,726.0,01.19,0.508
2013-12-01 01:03:00,6234E-4,5C000000,-0724,0967,10801,025.5,045.3,0.392,726.2,01.19,0.508
2013-12-01 01:04:00,5234E-4,5C000000,-0724,0967,10677,025.5,045.3,0.392,725.9,01.19,0.508
2013-12-01 01:05:00,4697E-4,5C000000,-0724,0968,10731,025.5,045.3,0.391,726.1,01.19,0.508
2013-12-01 01:06:00,5753E-4,5C000000,-0724,0967,10866,025.5,045.3,0.392,726.2,01.19,0.508
2013-12-01 01:07:00,5011E-4,5C000000,-0724,0968,10915,025.5,045.2,0.391,726.2,01.19,0.508
2013-12-01 01:08:00,6013E-4,5C000000,-0724,0967,10787,025.5,045.3,0.392,726.1,01.19,0.508
2013-12-01 01:09:00,5733E-4,5C000000,-0724,0967,10748,025.5,045.3,0.392,726.1,01.19,0.508
2013-12-01 01:10:00,5281E-4,5C000000,-0724,0968,10844,025.5,045.3,0.392,726.2,01.19,0.508
2013-12-01 01:11:00,5873E-4,5C000000,-0724,0968,10766,025.5,045.3,0.392,726.3,01.19,0.508
2013-12-01 01:12:00,5717E-4,5C000000,-0724,0967,10874,025.5,045.3,0.391,726.3,01.19,0.508
2013-12-01 01:13:00,4459E-4,5C000000,-0724,0967,10801,025.5,045.2,0.392,726.3,01.19,0.508
2013-12-01 01:14:00,5573E-4,5C000000,-0724,0969,10817,025.5,045.2,0.392,726.2,01.19,0.508
2013-12-01 01:15:00,6921E-4,5C000000,-0724,0969,10856,025.5,045.3,0.392,726.2,01.19,0.508
2013-12-01 01:16:00,6757E-4,5C000000,-0724,0968,10900,025.5,045.3,0.392,726.0,01.19,0.508
2013-12-01 01:17:00,7103E-4,5C000000,-0724,0967,10899,025.5,045.2,0.391,726.1,01.19,0.508
2013-12-01 01:18:00,5104E-4,5C000000,-0724,0968,10839,025.5,045.2,0.392,726.2,01.19,0.508
2013-12-01 01:19:00,5701E-4,5C000000,-0724,0967,10731,025.5,045.2,0.391,726.2,01.19,0.508
2013-12-01 01:20:00,6175E-4,5C000000,-0724,0969,10969,025.5,045.3,0.392,726.1,01.19,0.508
2013-12-01 01:21:00,5133E-4,5C000000,-0724,0968,10937,025.5,045.3,0.392,726.2,01.19,0.508
2013-12-01 01:22:00,6415E-4,5C000000,-0724,0968,10783,025.5,045.2,0.392,726.2,01.19,0.508
2013-12-01 01:23:00,6356E-4,5C000000,-0724,0968,10933,025.5,045.2,0.392,726.1,01.19,0.508
2013-12-01 01:24:00,5793E-4,5C000000,-0724,0967,10749,025.5,045.2,0.391,726.2,01.19,0.508
2013-12-01 01:25:00,6679E-4,5C000000,-0724,0967,10876,025.5,045.2,0.392,726.3,01.19,0.508
2013-12-01 01:26:00,4871E-4,5C000000,-0724,0968,10792,025.5,045.3,0.391,726.3,01.19,0.508
2013-12-01 01:27:00,4877E-4,5C000000,-0724,0968,10832,025.5,045.3,0.392,726.3,01.19,0.508
2013-12-01 01:28:00,6242E-4,5C000000,-0724,0968,10747,025.5,045.2,0.392,726.3,01.19,0.508
2013-12-01 01:29:00,5810E-4,5C000000,-0724,0967,10951,025.5,045.3,0.392,726.3,01.19,0.508
2013-12-01 01:30:00,6190E-4,5C000000,-0724,0968,10923,025.5,045.2,0.392,726.3,01.19,0.508
2013-12-01 01:31:00,5514E-4,5C000000,-0724,0969,10898,025.5,045.3,0.391,726.3,01.19,0.508
2013-12-01 01:32:00,6010E-4,5C000000,-0724,0968,10833,025.5,045.3,0.392,726.1,01.19,0.508
2013-12-01 01:33:00,6160E-4,5C000000,-0724,0968,10789,025.5,045.3,0.391,726.1,01.19,0.508
2013-12-01 01:34:00,6137E-4,5C000000,-0724,0968,10859,025.5,045.2,0.392,726.2,01.19,0.508
2013-12-01 01:35:00,5669E-4,5C000000,-0724,0968,10980,025.5,045.3,0.392,726.0,01.19,0.508
2013-12-01 01:36:00,5270E-4,5C000000,-0724,0968,10878,025.5,045.3,0.391,726.1,01.19,0.508
2013-12-01 01:37:00,5876E-4,5C000000,-0724,0968,10924,025.5,045.3,0.392,726.2,01.19,0.508
2013-12-01 01:38:00,6681E-4,5C000000,-0724,0968,10906,025.5,045.3,0.391,726.3,01.19,0.508
2013-12-01 01:39:00,5508E-4,5C000000,-0724,0967,10919,025.5,045.3,0.392,726.1,01.19,0.508
2013-12-01 01:40:00,6517E-4,5C000000,-0724,0968,10924,025.5,045.3,0.391,726.2,01.19,0.508
2013-12-01 01:41:00,5595E-4,5C000000,-0724,0968,10903,025.5,045.2,0.392,726.2,01.19,0.508
2013-12-01 01:42:00,7038E-4,5C000000,-0724,0968,10862,025.5,045.3,0.392,726.2,01.19,0.508
2013-12-01 01:43:00,6452E-4,5C000000,-0724,0968,10920,025.5,045.3,0.391,726.2,01.19,0.508
2013-12-01 01:44:00,6761E-4,5C000000,-0724,0968,10919,025.5,045.2,0.392,726.3,01.19,0.508
2013-12-01 01:45:00,5828E-4,5C000000,-0724,0968,10763,025.5,045.2,0.391,726.2,01.19,0.508
2013-12-01 01:46:00,6377E-4,5C000000,-0724,0968,10660,025.5,045.2,0.392,726.2,01.19,0.508
2013-12-01 01:47:00,6074E-4,5C000000,-0724,0968,10844,025.5,045.3,0.391,725.9,01.19,0.508
2013-12-01 01:48:00,6182E-4,5C000000,-0724,0969,10941,025.5,045.3,0.391,726.1,01.19,0.508
2013-12-01 01:49:00,6192E-4,5C000000,-0724,0967,10755,025.6,045.3,0.392,726.2,01.19,0.508
2013-12-01 01:50:00,5733E-4,5C000000,-0724,0968,10840,025.6,045.3,0.391,726.2,01.19,0.508
2013-12-01 01:51:00,6147E-4,5C000000,-0724,0967,10814,025.6,045.2,0.392,726.1,01.19,0.508
2013-12-01 01:52:00,6393E-4,5C000000,-0724,0968,10852,025.6,045.2,0.391,726.1,01.19,0.508
2013-12-01 01:53:00,5909E-4,5C000000,-0724,0969,10911,025.6,045.3,0.391,726.3,01.19,0.508
2013-12-01 01:54:00,5405E-4,5C000000,-0724,0968,10811,025.6,045.3,0.392,726.2,01.19,0.508
2013-12-01 01:55:00,5863E-4,5C000000,-0724,0968,10838,025.6,045.2,0.391,726.3,01.19,0.508
2013-12-01 01:56:00,6388E-4,5C000000,-0724,0968,10748,025.6,045.3,0.392,726.3,01.19,0.508
2013-12-01 01:57:00,5393E-4,5C000000,-0724,0968,10978,025.6,045.3,0.391,726.4,01.19,0.508
2013-12-01 01:58:00,5384E-4,5C000000,-0724,0968,10840,025.6,045.2,0.392,726.4,01.19,0.508
2013-12-01 01:59:00,5637E-4,5C000000,-0724,0969,11046,025.6,045.2,0.392,726.5,01.19,0.508
2013-12-01 02:00:00,6592E-4,5C000000,-0724,0968,10929,025.6,045.3,0.391,726.5,01.19,0.508
2013-12-01 02:01:00,4262E-4,5C000000,-0724,0969,10920,025.6,045.3,0.392,726.5,01.19,0.508
2013-12-01 02:02:00,6692E-4,5C000000,-0724,0968,10886,025.6,045.3,0.391,726.5,01.19,0.508
2013-12-01 02:03:00,5346E-4,5C000000,-0724,0969,10964,025.6,045.3,0.392,726.3,01.19,0.508
2013-12-01 02:04:00,5714E-4,5C000000,-0724,0967,10857,025.6,045.2,0.392,726.4,01.19,0.508
2013-12-01 02:05:00,5892E-4,5C000000,-0724,0968,10781,025.6,045.2,0.391,726.5,01.19,0.508
2013-12-01 02:06:00,5279E-4,5C000000,-0724,0968,10917,025.6,045.3,0.392,726.3,01.19,0.508
2013-12-01 02:07:00,5269E-4,5C000000,-0724,0968,10705,025.6,045.2,0.391,726.4,01.19,0.508
2013-12-01 02:08:00,5027E-4,5C000000,-0724,0968,10831,025.6,045.3,0.392,726.5,01.19,0.508
2013-12-01 02:09:00,5415E-4,5C000000,-0724,0969,10845,025.6,045.3,0.391,726.3,01.19,0.508
2013-12-01 02:10:00,6272E-4,5C000000,-0724,0969,10854,025.6,045.2,0.391,726.4,01.19,0.508
2013-12-01 02:11:00,5821E-4,5C000000,-0724,0968,10917,025.6,045.2,0.392,726.5,01.19,0.508
2013-12-01 02:12:00,5158E-4,5C000000,-0724,0968,10872,025.6,045.3,0.391,726.5,01.19,0.508
2013-12-01 02:13:00,5145E-4,5C000000,-0724,0968,10825,025.6,045.3,0.392,726.5,01.19,0.508
2013-12-01 02:14:00,6140E-4,5C000000,-0724,0969,10785,025.6,045.3,0.391,726.5,01.19,0.508
2013-12-01 02:15:00,5016E-4,5C000000,-0724,0968,10882,025.6,045.2,0.391,726.5,01.19,0.508
2013-12-01 02:16:00,3881E-4,5C000000,-0724,0969,10965,025.6,045.3,0.392,726.5,01.19,0.508
2013-12-01 02:17:00,4874E-4,5C000000,-0724,0969,10911,025.6,045.2,0.391,726.5,01.19,0.508
2013-12-01 02:18:00,5819E-4,5C000000,-0724,0968,10886,025.6,045.3,0.391,726.2,01.19,0.508
2013-12-01 02:19:00,4490E-4,5C000000,-0724,0967,10815,025.6,045.2,0.392,726.3,01.19,0.508
2013-12-01 02:20:00,4859E-4,5C000000,-0724,0969,10839,025.6,045.3,0.391,726.5,01.19,0.508
2013-12-01 02:21:00,4506E-4,5C000000,-0724,0968,10814,025.6,045.3,0.392,726.2,01.19,0.508
2013-12-01 02:22:00,5525E-4,5C000000,-0724,0968,10890,025.6,045.2,0.391,726.3,01.19,0.508
2013-12-01 02:23:00,5431E-4,5C000000,-0724,0970,10862,025.7,045.3,0.391,726.4,01.19,0.508
2013-12-01 02:24:00,6148E-4,5C000000,-0724,0969,10952,025.7,045.3,0.392,726.4,01.19,0.508
2013-12-01 02:25:00,5368E-4,5C000000,-0724,0968,10880,025.7,045.3,0.391,726.3,01.19,0.508
2013-12-01 02:26:00,5203E-4,5C000000,-0724,0968,10812,025.7,045.3,0.392,726.4,01.19,0.508
2013-12-01 02:27:00,4262E-4,5C000000,-0724,0969,10797,025.7,045.3,0.391,726.4,01.19,0.508
2013-12-01 02:28:00,5078E-4,5C000000,-0724,0968,10976,025.7,045.3,0.391,726.4,01.19,0.508
2013-12-01 02:29:00,5615E-4,5C000000,-0724,0968,10932,025.6,045.3,0.392,726.4,01.19,0.508
2013-12-01 02:30:00,5436E-4,5C000000,-0724,0969,10938,025.7,045.3,0.391,726.5,01.19,0.508
2013-12-01 02:31:00,5068E-4,5C000000,-0724,0968,10939,025.7,045.3,0.392,726.5,01.19,0.508
2013-12-01 02:32:00,6455E-4,5C000000,-0724,0968,10811,025.7,045.3,0.391,726.5,01.19,0.508
2013-12-01 02:33:00,5196E-4,5C000000,-0724,0967,10780,025.7,045.3,0.391,726.3,01.19,0.508
2013-12-01 02:34:00,4614E-4,5C000000,-0724,0969,10950,025.7,045.3,0.391,726.4,01.19,0.508
2013-12-01 02:35:00,5964E-4,5C000000,-0724,0968,10881,025.7,045.3,0.391,726.5,01.19,0.508
2013-12-01 02:36:00,4246E-4,5C000000,-0724,0968,10828,025.7,045.2,0.392,726.3,01.19,0.508
2013-12-01 02:37:00,5613E-4,5C000000,-0724,0968,10826,025.7,045.2,0.391,726.3,01.19,0.508
2013-12-01 02:38:00,5298E-4,5C000000,-0724,0967,10929,025.7,045.3,0.391,726.5,01.19,0.508
2013-12-01 02:39:00,4864E-4,5C000000,-0724,0968,10578,025.7,045.3,0.391,726.5,01.19,0.508
2013-12-01 02:40:00,4706E-4,5C000000,-0724,0969,10858,025.7,045.3,0.391,726.3,01.19,0.508
2013-12-01 02:41:00,4708E-4,5C000000,-0724,0968,10759,025.7,045.3,0.392,726.5,01.19,0.508
2013-12-01 02:42:00,4057E-4,5C000000,-0724,0968,10796,025.7,045.3,0.391,726.5,01.19,0.508
2013-12-01 02:43:00,5026E-4,5C000000,-0724,0968,10938,025.7,045.3,0.392,726.5,01.19,0.508
2013-12-01 02:44:00,5358E-4,5C000000,-0724,0969,10883,025.7,045.3,0.391,726.5,01.19,0.508
2013-12-01 02:45:00,5447E-4,5C000000,-0724,0969,10831,025.7,045.3,0.391,726.5,01.19,0.508
2013-12-01 02:46:00,6573E-4,5C000000,-0724,0967,10729,025.7,045.3,0.392,726.5,01.19,0.508
2013-12-01 02:47:00,5152E-4,5C000000,-0724,0968,10841,025.7,045.2,0.391,726.5,01.19,0.508
2013-12-01 02:48:00,4263E-4,5C000000,-0724,0968,10860,025.7,045.2,0.391,726.4,01.19,0.508
2013-12-01 02:49:00,5537E-4,5C000000,-0724,0969,10914,025.7,045.3,0.392,726.4,01.19,0.508
2013-12-01 02:50:00,4903E-4,5C000000,-0724,0969,10972,025.8,045.3,0.391,726.5,01.19,0.508
2013-12-01 02:51:00,5322E-4,5C000000,-0724,0968,10947,025.7,045.3,0.391,726.5,01.19,0.508
2013-12-01 02:52:00,5617E-4,5C000000,-0724,0969,10799,025.8,045.3,0.391,726.4,01.19,0.508
2013-12-01 02:53:00,5211E-4,5C000000,-0724,0969,10892,025.8,045.3,0.391,726.5,01.19,0.508
2013-12-01 02:54:00,4598E-4,5C000000,-0724,0968,10867,025.8,045.3,0.392,726.5,01.19,0.508
2013-12-01 02:55:00,4762E-4,5C000000,-0724,0968,10951,025.8,045.3,0.391,726.4,01.19,0.508
2013-12-01 02:56:00,4505E-4,5C000000,-0724,0968,10917,025.8,045.3,0.391,726.5,01.19,0.508
2013-12-01 02:57:00,5023E-4,5C000000,-0724,0968,10909,025.8,045.3,0.391,726.6,01.19,0.508
2013-12-01 02:58:00,5397E-4,5C000000,-0724,0968,10785,025.8,045.3,0.391,726.6,01.19,0.508
2013-12-01 02:59:00,4887E-4,5C000000,-0724,0969,10838,025.8,045.3,0.391,726.6,01.19,0.508
2013-12-01 03:00:00,5002E-4,5C000000,-0724,0968,10771,025.8,045.3,0.392,726.6,01.19,0.508
2013-12-01 03:01:00,5015E-4,5C000000,-0724,0969,10843,025.8,045.3,0.391,726.6,01.19,0.508
2013-12-01 03:02:00,4850E-4,5C000000,-0724,0968,10792,025.8,045.3,0.391,726.6,01.19,0.508
2013-12-01 03:03:00,4958E-4,5C000000,-0724,0968,10842,025.8,045.3,0.391,726.6,01.19,0.508
2013-12-01 03:04:00,4842E-4,5C000000,-0724,0968,10779,025.8,045.3,0.391,726.4,01.19,0.508
2013-12-01 03:05:00,4735E-4,5C000000,-0724,0968,10841,025.8,045.3,0.391,726.5,01.19,0.508
2013-12-01 03:06:00,4326E-4,5C000000,-0724,0969,10802,025.8,045.3,0.391,726.5,01.19,0.508
2013-12-01 03:07:00,5483E-4,5C000000,-0724,0969,10846,025.8,045.3,0.391,726.4,01.19,0.508
2013-12-01 03:08:00,5194E-4,5C000000,-0724,0969,10713,025.8,045.3,0.391,726.4,01.19,0.508
2013-12-01 03:09:00,4013E-4,5C000000,-0724,0968,10816,025.8,045.2,0.391,726.6,01.19,0.508
2013-12-01 03:10:00,4345E-4,5C000000,-0724,0968,10847,025.8,045.3,0.391,726.6,01.19,0.508
2013-12-01 03:11:00,5462E-4,5C000000,-0724,0969,10902,025.8,045.3,0.391,726.4,01.19,0.508
2013-12-01 03:12:00,4732E-4,5C000000,-0724,0969,10965,025.8,045.3,0.391,726.5,01.19,0.508
2013-12-01 03:13:00,4524E-4,5C000000,-0724,0968,10782,025.8,045.3,0.391,726.6,01.19,0.508
2013-12-01 03:14:00,5180E-4,5C000000,-0724,0969,10869,025.8,045.3,0.391,726.5,01.19,0.508
2013-12-01 03:15:00,6099E-4,5C000000,-0724,0968,10847,025.8,045.3,0.391,726.5,01.19,0.508
2013-12-01 03:16:00,4407E-4,5C000000,-0724,0969,10874,025.9,045.3,0.391,726.5,01.19,0.508
2013-12-01 03:17:00,4397E-4,5C000000,-0724,0968,10912,025.9,045.3,0.391,726.6,01.19,0.508
2013-12-01 03:18:00,4446E-4,5C000000,-0724,0967,10799,025.9,045.3,0.391,726.6,01.19,0.508
2013-12-01 03:19:00,4365E-4,5C000000,-0724,0969,10860,025.9,045.3,0.391,726.4,01.19,0.508
2013-12-01 03:20:00,5475E-4,5C000000,-0724,0969,10805,025.9,045.3,0.391,726.4,01.19,0.508
2013-12-01 03:21:00,5374E-4,5C000000,-0724,0969,10814,025.8,045.3,0.391,726.5,01.19,0.508
2013-12-01 03:22:00,4289E-4,5C000000,-0724,0968,10823,025.9,045.3,0.391,726.5,01.19,0.508
2013-12-01 03:23:00,4834E-4,5C000000,-0724,0969,10830,025.9,045.3,0.391,726.4,01.19,0.508
2013-12-01 03:24:00,4988E-4,5C000000,-0724,0969,10879,025.9,045.3,0.391,726.5,01.19,0.508
2013-12-01 03:25:00,4586E-4,5C000000,-0724,0969,10895,025.9,045.3,0.391,726.5,01.19,0.508
2013-12-01 03:26:00,4414E-4,5C000000,-0724,0969,10902,025.9,045.3,0.391,726.4,01.19,0.508
2013-12-01 03:27:00,4322E-4,5C000000,-0724,0969,10783,025.9,045.3,0.391,726.5,01.19,0.508
2013-12-01 03:28:00,5314E-4,5C000000,-0724,0968,10920,025.9,045.3,0.391,726.6,01.19,0.508
2013-12-01 03:29:00,4865E-4,5C000000,-0724,0969,10789,025.9,045.3,0.391,726.5,01.19,0.508
2013-12-01 03:30:00,4517E-4,5C000000,-0724,0969,10752,025.9,045.3,0.391,726.5,01.19,0.508
2013-12-01 03:31:00,4270E-4,5C000000,-0724,0969,10804,025.9,045.3,0.391,726.6,01.19,0.508
2013-12-01 03:32:00,4995E-4,5C000000,-0724,0968,10912,025.9,045.3,0.391,726.5,01.19,0.508
2013-12-01 03:33:00,4954E-4,5C000000,-0724,0969,10851,025.9,045.3,0.391,726.6,01.19,0.508
2013-12-01 03:34:00,5416E-4,5C000000,-0724,0969,10872,025.9,045.3,0.391,726.5,01.19,0.508
2013-12-01 03:35:00,4801E-4,5C000000,-0724,0969,10814,026.0,045.3,0.391,726.4,01.19,0.508
2013-12-01 03:36:00,5106E-4,5C000000,-0724,0969,10927,025.9,045.3,0.391,726.5,01.19,0.508
2013-12-01 03:37:00,4083E-4,5C000000,-0724,0968,10767,025.9,045.3,0.391,726.5,01.19,0.508
2013-12-01 03:38:00,5043E-4,5C000000,-0724,0970,10724,025.9,045.3,0.391,726.4,01.19,0.508
2013-12-01 03:39:00,4391E-4,5C000000,-0724,0969,10764,026.0,045.3,0.390,726.4,01.19,0.508
2013-12-01 03:40:00,5100E-4,5C000000,-0724,0969,10834,025.9,045.2,0.391,726.5,01.19,0.508
2013-12-01 03:41:00,3641E-4,5C000000,-0724,0969,10951,026.0,045.3,0.391,726.6,01.19,0.508
2013-12-01 03:42:00,4772E-4,5C000000,-0724,0969,10848,026.0,045.3,0.390,726.4,01.19,0.508
2013-12-01 03:43:00,4944E-4,5C000000,-0724,0968,10794,026.0,045.3,0.391,726.6,01.19,0.508
2013-12-01 03:44:00,5768E-4,5C000000,-0724,0968,10921,026.0,045.3,0.391,726.5,01.19,0.508
2013-12-01 03:45:00,4493E-4,5C000000,-0724,0969,10800,026.0,045.3,0.391,726.5,01.19,0.508
2013-12-01 03:46:00,4842E-4,5C000000,-0724,0969,10837,025.9,045.3,0.391,726.5,01.19,0.508
2013-12-01 03:47:00,5155E-4,5C000000,-0724,0968,10756,026.0,045.3,0.391,726.5,01.19,0.508
2013-12-01 03:48:00,4560E-4,5C000000,-0724,0969,10839,026.0,045.3,0.390,726.5,01.19,0.508
2013-12-01 03:49:00,5115E-4,5C000000,-0724,0969,10715,026.0,045.3,0.391,726.6,01.19,0.508
2013-12-01 03:50:00,4772E-4,5C000000,-0724,0968,10803,026.0,045.3,0.391,726.4,01.19,0.508
2013-12-01 03:51:00,5380E-4,5C000000,-0724,0969,10805,026.0,045.3,0.391,726.5,01.19,0.508
2013-12-01 03:52:00,5129E-4,5C000000,-0724,0968,10870,026.0,045.3,0.391,726.6,01.19,0.508
2013-12-01 03:53:00,5368E-4,5C000000,-0724,0970,10868,026.0,045.2,0.391,726.6,01.19,0.508
2013-12-01 03:54:00,5518E-4,5C000000,-0724,0968,10743,026.0,045.3,0.391,726.5,01.19,0.508
2013-12-01 03:55:00,5073E-4,5C000000,-0724,0969,10948,026.0,045.3,0.391,726.5,01.19,0.508
2013-12-01 03:56:00,4866E-4,5C000000,-0724,0969,10848,026.0,045.3,0.391,726.6,01.19,0.508
2013-12-01 03:57:00,4666E-4,5C000000,-0724,0968,10926,026.0,045.3,0.391,726.4,01.19,0.508
2013-12-01 03:58:00,4780E-4,5C000000,-0724,0969,10812,026.0,045.3,0.390,726.5,01.19,0.508
2013-12-01 03:59:00,4925E-4,5C000000,-0724,0969,10865,026.0,045.3,0.391,726.6,01.19,0.508
2013-12-01 04:00:00,4894E-4,5C000000,-0724,0968,10933,026.0,045.3,0.391,726.5,01.19,0.508
2013-12-01 04:01:00,4802E-4,5C000000,-0724,0969,10840,026.0,045.3,0.390,726.6,01.19,0.508
2013-12-01 04:02:00,4812E-4,5C000000,-0724,0969,10823,026.0,045.3,0.391,726.6,01.19,0.508
2013-12-01 04:03:00,4585E-4,5C000000,-0724,0970,10874,026.0,045.3,0.391,726.5,01.19,0.508
2013-12-01 04:04:00,4250E-4,5C000000,-0724,0969,10747,026.0,045.3,0.390,726.6,01.19,0.508
2013-12-01 04:05:00,6073E-4,5C000000,-0724,0970,10706,026.0,045.3,0.390,726.5,01.19,0.508
2013-12-01 04:06:00,4490E-4,5C000000,-0724,0969,10964,026.1,045.3,0.391,726.4,01.19,0.508
2013-12-01 04:07:00,5169E-4,5C000000,-0724,0969,10705,026.0,045.3,0.391,726.5,01.19,0.508
2013-12-01 04:08:00,3725E-4,5C000000,-0724,0968,10872,026.1,045.3,0.390,726.5,01.19,0.508
2013-12-01 04:09:00,4548E-4,5C000000,-0724,0969,10852,026.1,045.3,0.391,726.4,01.19,0.508
2013-12-01 04:10:00,6004E-4,5C000000,-0724,0969,10826,026.1,045.3,0.391,726.5,01.19,0.508
2013-12-01 04:11:00,4408E-4,5C000000,-0724,0970,10859,026.1,045.3,0.390,726.5,01.19,0.508
2013-12-01 04:12:00,4672E-4,5C000000,-0724,0968,10977,026.1,045.3,0.391,726.3,01.19,0.508
2013-12-01 04:13:00,5201E-4,5C000000,-0724,0969,10733,026.1,045.3,0.391,726.4,01.19,0.508
2013-12-01 04:14:00,4826E-4,5C000000,-0724,0968,10828,026.1,045.3,0.390,726.6,01.19,0.508
2013-12-01 04:15:00,5657E-4,5C000000,-0724,0969,10934,026.1,045.3,0.391,726.5,01.19,0.508
2013-12-01 04:16:00,4854E-4,5C000000,-0724,0969,10887,026.1,045.3,0.391,726.5,01.19,0.508
2013-12-01 04:17:00,4159E-4,5C000000,-0724,0969,10789,026.1,045.3,0.390,726.6,01.19,0.508
2013-12-01 04:18:00,4475E-4,5C000000,-0724,0969,10739,026.1,045.3,0.391,726.5,01.19,0.508
2013-12-01 04:19:00,4186E-4,5C000000,-0724,0969,10938,026.1,045.3,0.391,726.6,01.19,0.508
2013-12-01 04:20:00,4049E-4,5C000000,-0724,0969,10824,026.1,045.3,0.390,726.6,01.19,0.508